Location: L�Adrech
(44.2500°N, 6.4167°E)
Time: 11:37:19
(UTC+00:00)

Cosmos 2263 Rocket - Pass Details

Date: 07 June 2020
Orbit: 825 x 847 km, 71.0° (Epoch: 11 July)

Event Time Altitude Azimuth Distance (km) Brightness Sun altitude
Rises 02:48:20 0° 317° (NW) 3,382 5.4 -9.5°
Reaches altitude 10° 02:51:55 10° 294° (WNW) 2,438 4.4 -9.0°
Maximum altitude 02:54:46 14° 263° (W) 2,135 3.8 -8.7°
Enters shadow 02:57:36 10° 232° (SW) 2,421 3.9 -8.3°
